Other Public Products
Issued by NWS Grand Forks, ND

Home | Current Version | Previous Version | Graphics & Text | Print | Product List | Glossary On
Versions: 1 2 3 4 5 6 7 8 9 10 11 12 13 14 15 16 17 18 19 20 21 22 23 24 25 26 27 28 29 30 31 32 33 34 35 36 37 38 39 40 41 42 43 44 45 46 47 48 49 50
713
FPUS83 KFGF 112231
OPUFGF
PRAIRIE TO PINES WEATHER ROUNDUP
NATIONAL WEATHER SERVICE EASTERN NORTH DAKOTA/GRAND FORKS ND
400 PM CST MON DEC 11 2017

 **SATELLITE DATA USED TO AUGMENT SKY COVER AT AUTOMATED STATIONS**
 *****  WEATHER ACROSS EASTERN NORTH DAKOTA  *****

CITY           SKY/WX    TMP DP  RH WIND       PRES   REMARKS
GRAND FORKS    FAIR      15   8  73 N18       30.30R WCI  -2
GRND FORKS AFB FAIR      16   8  70 N15       30.30R WCI   1
GRND FORKS NWS   N/A     14 N/A N/A N14         N/A  WCI  -1
BUXTON           N/A     15  10  79 NW17        N/A  WCI  -1
DEVILS LAKE    MOCLDY    19  16  86 N6        30.31R WCI  11
FARGO          FAIR      17  11  77 N23       30.27R WCI  -1
WAHPETON ARPT    N/A     19  10  68 N17G23    30.26R WCI   4
$$

 *****  WEATHER ACROSS CENTRAL AND WESTERN NORTH DAKOTA  *****

CITY           SKY/WX    TMP DP  RH WIND       PRES   REMARKS
JAMESTOWN      FAIR      21  14  74 N16       30.29R WCI   7
BISMARCK       FAIR      34  22  61 N10       30.31R
MINOT          FAIR      29  20  69 N6        30.30R WCI  23
MINOT AFB      FAIR      31  19  62 NW9       30.28S WCI  23
GARRISON         N/A     33  21  61 NW20      30.29R WCI  21
WILLISTON      CLOUDY    37  28  70 NW9       30.35R
DICKINSON      CLOUDY    35  30  82 NW12      30.30S
HETTINGER      CLOUDY    36  28  73 NW20      30.33R
$$

 *****  OTHER OBSERVATIONS NORTHEAST NORTH DAKOTA  *****

CITY           SKY/WX    TMP DP  RH WIND       PRES   REMARKS
WALHALLA       FLURRIES  14  12  92 N13       30.32R WCI   0
LANGDON        FAIR      12  10  92 NW8       30.28R WCI   1
CAVALIER       FAIR      14   7  73 N10G17    30.32R WCI   1
GRAFTON        FAIR      14   9  79 N14       30.33R WCI  -1
CANDO          FAIR      21  12  68 NW12      30.32R WCI   9
FORT TOTTEN      N/A     21  14  73 N3        29.95
ROLLA          CLOUDY    19  14  79 NW10      30.28R WCI   8
RUGBY          MOCLDY    21  16  79 NW14G21   30.30R WCI   8
 ***** THE ABOVE OBSERVATIONS ARE NON NWS ARE NOT QUALITY
        CONTROLLED AND MAY MIS-REPORT RAIN FOR SNOW...
$$

 *****  OTHER OBSERVATIONS SOUTHEAST NORTH DAKOTA *****

CITY           SKY/WX    TMP DP  RH WIND       PRES   REMARKS
COOPERSTOWN    MOCLDY    19  14  79 NW17G24   30.29R WCI   4
VALLEY CITY    FAIR      18  14  86 N15       30.30R WCI   3
OAKES            N/A     21  16  79 N18G30    30.29R WCI   6
GWINNER          N/A     23  14  68 NW16G25   30.28R WCI  10
SHEYENNE NWR     N/A     23  14  68 N14       29.95S WCI  11
BUFFALO          N/A     19  10  67 SW18        N/A  WCI   4
WYNDMERE       NOT AVBL
 ***** THE ABOVE OBSERVATIONS ARE NON NWS ARE NOT QUALITY
       CONTROLLED AND MAY MIS-REPORT RAIN FOR SNOW...
$$

  *****  WEATHER ACROSS NORTHERN MINNESOTA  *****

CITY           SKY/WX    TMP DP  RH WIND       PRES   REMARKS
FLAG ISLAND    MOCLDY    10   5  79 NW17      30.18R WCI  -7
WARROAD        FAIR      10   3  72 NW12      30.21R WCI  -4
ROSEAU         FAIR      12   5  73 NW16      30.23R WCI  -4
HALLOCK        FAIR      12   7  79 N16       30.30R WCI  -4
THF RVR FALLS  FAIR      10   6  84 NW18      30.24R WCI  -8
HALSTAD        NOT AVBL
FOSSTON        CLOUDY    10   7  85 NW17      30.22R WCI  -7
BAUDETTE       FLURRIES  14   8  77 NW15G26   30.14R WCI  -1
WASKISH        MOCLDY    16  10  79 NW10      30.14R WCI   3
CROOKSTON      MOCLDY    12   7  79 N23       30.29R WCI  -7
$$
  *****  WEATHER ACROSS CENTRAL AND WEST MINNESOTA  *****

CITY           SKY/WX    TMP DP  RH WIND       PRES   REMARKS
BEMIDJI        FLURRIES  16  10  80 NW15      30.13R WCI   1
PARK RAPIDS    MOCLDY    19  12  74 NW17G28   30.09R WCI   4
WADENA         MIX PCPN  18  12  79 NW17      30.12R WCI   2
DETROIT LAKES  FAIR      14  10  85 NW17G23   30.20R WCI  -3
MOORHEAD       FAIR      14   9  79 N18       30.28R WCI  -3
FERGUS FALLS   FAIR      14   9  79 N22G32    30.24R WCI  -4
ELBOW LAKE     FAIR      16  10  79 NW21G32   30.19R HAZE    WCI  -2
MORRIS MN      FAIR      19  12  73 N29G37    30.17R WCI   1
STAPLES        FAIR      19  12  73 NW10G16   30.09R WCI   8
WHEATON        FAIR      21  12  68 NW18G26   30.25R WCI   6
$$
  *****  WEATHER ELSEWHERE ACROSS MINNESOTA  *****

CITY           SKY/WX    TMP DP  RH WIND       PRES   REMARKS
DULUTH         FLURRIES  17  11  77 NW13G22   29.97R WCI   4
INTRNTL FALLS  CLOUDY    14   7  73 NW13      30.08R HAZE    WCI   0
ELY            FLURRIES  12   7  79 NW12G20   29.97R WCI  -2
CLOQUET        MOCLDY    19  10  68 NW17G28   29.99R WCI   4
BRAINERD       FAIR      23  12  62 N17G24    30.06R WCI   9
HIBBING        MOCLDY    15   8  73 N10G22    30.01R WCI   2
ALEXANDRIA     MOCLDY    20  13  74 NW16G25   30.12R WCI   6
SAINT CLOUD    FAIR      26  16  65 N16G26    30.05R WCI  14
MINNEAPOLIS    CLOUDY    31  23  72 N20G29    29.99R WCI  19
$$

  *****  WEATHER ACROSS SOUTH DAKOTA  *****

CITY           SKY/WX    TMP DP  RH WIND       PRES   REMARKS
SIOUX FALLS    CLOUDY    33  25  72 N24G36    30.15R WCI  20
BROOKINGS      CLOUDY    28  21  75 N22G30    30.15R WCI  14
WATERTOWN      FAIR      24  18  77 N25       30.18R WCI   8
HURON          FAIR      34  25  69 N21G30    30.24R WCI  22
SISSETON         N/A     24  15  68 NW22G30   30.22R WCI   9
ABERDEEN       FAIR      26  17  68 N21       30.28R WCI  12
MITCHELL       FAIR      36  28  73 N24G31    30.23R
PIERRE         CLOUDY    37  33  85 N21       30.29R
MOBRIDGE       CLOUDY    40  28  62 NW14      30.25R
RAPID CITY     FAIR      42  21  43 N31G40    30.32R
$$

  *****  SOME WEATHER IN NEARBY STATES *****

CITY           SKY/WX    TMP DP  RH WIND       PRES   REMARKS
GLASGOW MT     FAIR      41  26  55 NW9       30.38F
GREAT FALLS MT FAIR      52  12  20 SW10      30.37F
CHEYENNE WY    FAIR      48   9  20 NW20G36   30.37R
SCOTTSBLUFF NE FAIR      50  15  24 NW16      30.35R
OMAHA NE       CLOUDY    43  30  60 N26G44    30.07R
DES MOINES IA  CLOUDY    41  32  70 NW26G35   29.95R
DAVENPORT IA   LGT SNOW  34  31  88 NW13      29.81R FOG     WCI  25
CHICAGO IL     CLOUDY    37  25  61 N8        29.69R
EAU CLAIRE WI  CLOUDY    30  22  72 N15G25    29.90R WCI  19
LA CROSSE WI   CLOUDY    34  27  75 N17       29.86R WCI  23
$$

  *****  SOME NATIONAL WEATHER *****

CITY           SKY/WX    TMP DP  RH WIND       PRES   REMARKS
LA GUARDIA NY  MOCLDY    41  20  43 W6        30.00R
RALEIGH NC     FAIR      50  29  44 S7        30.00F
ATLANTA GA     FAIR      58  33  39 W8        30.03F
NEW ORLEANS LA PTSUNNY   68  38  33 W10       30.15F
OKLAHOMA CITY  FAIR      63  14  15 N15       30.12R
ALBUQUERQUE NM PTSUNNY   48   1  14 CALM      30.37F
SALT LAKE CITY FOG       28  26  92 NW6       30.57F VSB 1/4 WCI  22
LOS ANGELES CA PTSUNNY   76  23  14 W7        30.16S
BOISE ID       CLOUDY    25  21  85 N3        30.64F
SEATTLE WA     FAIR      48  32  53 SE7       30.34S
$$

*** WEATHER ACROSS MANITOBA...SASKATCHEWAN AND ONTARIO ***
                ***ONTARIO***

CITY           SKY/WX    TMP DP  RH WIND       PRES   REMARKS
GERALDTON      LGT SNOW   3  -4  72 N14G25    29.83R DRFTSNOWWCI -15
THUNDER BAY    MOCLDY    12   5  73 N13G24    29.91R WCI  -3
SIOUX LOOKOUT  FLURRIES   7   0  72 NW13G18   30.03R WCI  -9
TORONTO        LGT SNOW  25  21  86 E6        29.87F WCI  18
BIG TROUT LK   FLURRIES   0  -6  78 NW13G18   30.00R WCI -18
PICKLE LAKE    CRYSTALS  -2  -8  78 NW6       29.98R WCI -14
DRYDEN         FLURRIES   9   3  78 NW8G17    30.05R WCI  -4
KENORA         PTCLDY     9   1  72 NW15      30.13R WCI  -8
$$
                *** MANITOBA***

CITY           SKY/WX    TMP DP  RH WIND       PRES   REMARKS
BRANDON        PTCLDY    19  12  73 NW9       30.29S WCI   9
DAUPHIN        CLEAR     14  12  92 CALM      30.30F
ISLAND LAKE    PTCLDY    -6 -11  77 NW13      30.16R WCI -25
PILOT MOUND      N/A     16  10  79 NW6         N/A  WCI   7
THE PAS        FLURRIES  10   5  79 W5        30.27S WCI   2
THOMPSON       PTCLDY    -6 -11  77 W6        30.22S WCI -18
WINNIPEG       PTCLDY     9   3  78 NW14      30.31R WCI  -8
LYNN LAKE      CLOUDY     1   0  92 W7        30.18F WCI -11
CHURCHILL      CRYSTALS -13 -18  77 NW16G23   30.12S WCI -37
GILLAM         PTCLDY   -11 -17  77 NW5       30.15S WCI -23
$$
                ***SASKATCHEWAN***

CITY           SKY/WX    TMP DP  RH WIND       PRES   REMARKS
ESTEVAN        PTCLDY    32  25  74 W12       30.31S WCI  23
KINDERSLEY     PTCLDY    36  27  69 SW6       30.29F
LLOYDMINSTER   PTCLDY    34  27  75 W12       30.20F
PRINCE ALBERT  MOCLDY    36  30  80 W3        30.22F
REGINA         PTCLDY    34  32  93 SW6       30.28F
YORKTON        CLOUDY    25  21  86 CALM      30.27S



USA.gov is the U.S. government's official web portal to all federal, state and local government web resources and services.